MPEC 2006-G33 : 2006 GU2

The following Minor Planet Electronic Circular may be linked-to from your own Web pages, but must not otherwise be redistributed electronically.


Read MPEC 2006-G32 Read MPEC 2006-G34


M.P.E.C. 2006-G33                                Issued 2006 Apr. 10, 14:54 UT

     The Minor Planet Electronic Circulars contain information on unusual
         minor planets and routine data on comets.  They are published
   on behalf of Commission 20 of the International Astronomical Union by the
          Minor Planet Center, Smithsonian Astrophysical Observatory,
                          Cambridge, MA 02138, U.S.A.

                  Supported in part by the Brinson Foundation
                  Supported in part by the TABASGO Foundation
             Prepared using the Tamkin Foundation Computer Network

                              MPC@CFA.HARVARD.EDU
          URL http://cfa-www.harvard.edu/iau/mpc.html  ISSN 1523-6714

                                   2006 GU2

Observations:
     K06G02U* C2006 04 07.30082 12 17 57.76 -02 38 42.9          20.4 V EG033G96
     K06G02U  C2006 04 07.30566 12 17 59.42 -02 38 13.4          20.3 V EG033G96
     K06G02U  C2006 04 07.31044 12 18 01.08 -02 37 43.5          21.0 V EG033G96
     K06G02U  C2006 04 07.31530 12 18 02.80 -02 37 13.7          20.7 V EG033G96
     K06G02U  C2006 04 07.36360 12 18 19.80 -02 32 19.5          21.3 V EG033G96
     K06G02U  C2006 04 07.36507 12 18 20.34 -02 32 10.3          20.0 V EG033G96
     K06G02U  C2006 04 07.36661 12 18 20.88 -02 32 01.0          20.8 V EG033G96
     K06G02U  C2006 04 07.36814 12 18 21.42 -02 31 52.3          20.2 V EG033G96
     K06G02U  C2006 04 08.21449 12 24 21.16 -01 17 30.7          20.6 V EG033G96
     K06G02U  C2006 04 08.22171 12 24 23.04 -01 16 57.1          21.2 V EG033G96
     K06G02U  C2006 04 08.22855 12 24 24.76 -01 16 25.8          21.0 V EG033G96
     K06G02U  C2006 04 08.23545 12 24 26.53 -01 15 54.4          21.2 V EG033G96
     K06G02U  C2006 04 09.20035 12 29 30.11 -00 11 11.2          21.0 V EG033G96
     K06G02U  C2006 04 09.20661 12 29 31.20 -00 10 48.2          20.8 V EG033G96
     K06G02U HC2006 04 09.29875 12 29 48.25 -00 05 25.5                 EG033291
     K06G02U HC2006 04 09.30480 12 29 49.32 -00 05 04.8                 EG033291

Observer details:
291 LPL/Spacewatch II.  Observers T. Gehrels, T. H. Bressi.  1.8-m f/2.7
    reflector + CCD.
G96 Mt. Lemmon Survey.  Observer R. E. Hill.  Measurers E. C. Beshore,
    E. J. Christensen, G. J. Garradd, A. R. Gibbs, A. D. Grauer, R. E. Hill,
    R. A. Kowalski, S. M. Larson, R. H. McNaught.  1.5-m reflector + CCD.

Orbital elements:
2006 GU2                                                 Earth MOID = 0.0037 AU
Epoch 2006 Mar. 6.0 TT = JDT 2453800.5                  MPC
M  36.53510              (2000.0)            P               Q
n   0.88314540     Peri.  264.94889     -0.21621945     -0.97619928
a   1.0759231      Node   197.56573     +0.91645332     -0.19697219
e   0.2561082      Incl.    3.20169     +0.33669342     -0.09075752
P   1.12           H   27.8           G   0.15           U   7
Residuals in seconds of arc
060407 G96  0.7+  0.2-    060407 G96  0.3-  0.3+    060409 G96  0.2+  1.0-
060407 G96  0.2+  0.4-    060407 G96  0.5-  0.3-    060409 G96  1.4-  0.1-
060407 G96  0.1+  0.1+    060408 G96  0.3-  0.0     060409 291  1.2+  0.8+
060407 G96  0.4+  0.1+    060408 G96  0.1+  0.4+    060409 291  1.2+  0.7+
060407 G96  0.4-  0.0     060408 G96  0.2-  0.2+
060407 G96  0.2-  0.3+    060408 G96  0.3+  0.1-

Ephemeris:
2006 GU2                 a,e,i = 1.08, 0.26, 3                   q = 0.8004
Date    TT    R. A. (2000) Decl.     Delta      r     Elong.  Phase     V
2006 04 05    11 49.30   -08 46.0    0.0161   1.016   163.4    16.3    19.7
2006 04 06    12 05.09   -05 23.2    0.0200   1.020   166.6    13.1    20.1
2006 04 07    12 15.53   -03 07.7    0.0242   1.024   167.8    11.9    20.5
2006 04 08    12 22.92   -01 31.8    0.0283   1.029   167.9    11.8    20.8
2006 04 09    12 28.44   -00 20.9    0.0326   1.033   167.5    12.1    21.2
2006 04 10    12 32.71   +00 33.3    0.0368   1.038   166.8    12.7    21.5
2006 04 11    12 36.13   +01 15.9    0.0411   1.042   166.1    13.4    21.7
2006 04 12    12 38.93   +01 49.9    0.0455   1.046   165.3    14.1    22.0
2006 04 13    12 41.28   +02 17.5    0.0498   1.051   164.5    14.8    22.2
2006 04 14    12 43.27   +02 40.2    0.0542   1.055   163.6    15.5    22.4
2006 04 15    12 45.00   +02 59.0    0.0586   1.059   162.8    16.2    22.6

Timothy B. Spahr             (C) Copyright 2006 MPC           M.P.E.C. 2006-G33

Read MPEC 2006-G32 Read MPEC 2006-G34


Our Web policy. Index to the CBAT/MPC/ICQ pages.

MPC

Valid HTML 4.01!